owner,sensor,date,latitude,longitude,vertical_datum,direction_of_sea_water_velocity,sea_water_speed,upward_sea_water_velocity,qcFlag 
TABS,ioos:station:wmo:42050:1,2010-05-01T00:00:00Z,28.8425,-94.2433,2.0,263.384467,9.895882982,-99999.0,'11133222,11111222,99999999' 
TABS,ioos:station:wmo:42050:1,2010-05-01T00:30:00Z,28.8425,-94.2433,2.0,250.7042277,10.10777918,-99999.0,'11111222,11111222,99999999' 
TABS,ioos:station:wmo:42050:1,2010-05-01T01:00:00Z,28.8425,-94.2433,2.0,244.2969978,13.07353433,-99999.0,'11111222,11111222,99999999' 
TABS,ioos:station:wmo:42050:1,2010-05-01T01:30:00Z,28.8425,-94.2433,2.0,258.7568229,13.38689658,-99999.0,'11111222,11111222,99999999' 
TABS,ioos:station:wmo:42050:1,2010-05-01T02:00:00Z,28.8425,-94.2433,2.0,251.8626831,16.41560538,-99999.0,'11111222,11111222,99999999' 
TABS,ioos:station:wmo:42050:1,2010-05-01T02:30:00Z,28.8425,-94.2433,2.0,266.6263774,14.95591187,-99999.0,'11111222,11111222,99999999' 
TABS,ioos:station:wmo:42050:1,2010-05-01T03:00:00Z,28.8425,-94.2433,2.0,278.1305043,15.90990258,-99999.0,'11111222,11111222,99999999' 
TABS,ioos:station:wmo:42050:1,2010-05-01T03:30:00Z,28.8425,-94.2433,2.0,274.6082133,16.18230206,-99999.0,'11111222,11111222,99999999' 
TABS,ioos:station:wmo:42050:1,2010-05-01T04:00:00Z,28.8425,-94.2433,2.0,292.7176396,17.193871,-99999.0,'11111222,11111222,99999999' 
TABS,ioos:station:wmo:42050:1,2010-05-01T04:30:00Z,28.8425,-94.2433,2.0,295.6394019,21.0307299,-99999.0,'11111222,11111222,99999999' 
TABS,ioos:station:wmo:42050:1,2010-05-01T05:00:00Z,28.8425,-94.2433,2.0,291.8854914,20.33551819,-99999.0,'11111222,11111222,99999999' 
TABS,ioos:station:wmo:42050:1,2010-05-01T05:30:00Z,28.8425,-94.2433,2.0,298.4872116,22.93707043,-99999.0,'11111222,11111222,99999999' 
TABS,ioos:station:wmo:42050:1,2010-05-01T06:00:00Z,28.8425,-94.2433,2.0,298.835086,22.02018392,-99999.0,'11111222,11111222,99999999' 
TABS,ioos:station:wmo:42050:1,2010-05-01T06:30:00Z,28.8425,-94.2433,2.0,299.2361571,19.96293816,-99999.0,'11111222,11111222,99999999' 
TABS,ioos:station:wmo:42050:1,2010-05-01T07:00:00Z,28.8425,-94.2433,2.0,299.5255673,17.14668773,-99999.0,'11111222,11111222,99999999' 
TABS,ioos:station:wmo:42050:1,2010-05-01T07:30:00Z,28.8425,-94.2433,2.0,299.5899603,16.0191448,-99999.0,'11111222,11111222,99999999' 
TABS,ioos:station:wmo:42050:1,2010-05-01T08:00:00Z,28.8425,-94.2433,2.0,310.3746258,13.41508479,-99999.0,'11111222,11111222,99999999' 
TABS,ioos:station:wmo:42050:1,2010-05-01T08:30:00Z,28.8425,-94.2433,2.0,325.2595023,12.70477076,-99999.0,'11111222,11111222,99999999' 
TABS,ioos:station:wmo:42050:1,2010-05-01T09:00:00Z,28.8425,-94.2433,2.0,329.0660222,13.32544183,-99999.0,'11111222,11111222,99999999' 
TABS,ioos:station:wmo:42050:1,2010-05-01T09:30:00Z,28.8425,-94.2433,2.0,334.5864786,14.91311168,-99999.0,'11111222,11111222,99999999' 
TABS,ioos:station:wmo:42050:1,2010-05-01T10:00:00Z,28.8425,-94.2433,2.0,344.7406135,11.13249747,-99999.0,'11111222,11111222,99999999' 
TABS,ioos:station:wmo:42050:1,2010-05-01T10:30:00Z,28.8425,-94.2433,2.0,333.2631629,8.935367928,-99999.0,'11133222,11111222,99999999' 
TABS,ioos:station:wmo:42050:1,2010-05-01T11:00:00Z,28.8425,-94.2433,2.0,311.6877009,7.954099572,-99999.0,'11133222,11111222,99999999' 
TABS,ioos:station:wmo:42050:1,2010-05-01T11:30:00Z,28.8425,-94.2433,2.0,311.661853,6.799764702,-99999.0,'11133222,11111222,99999999' 
TABS,ioos:station:wmo:42050:1,2010-05-01T12:00:00Z,28.8425,-94.2433,2.0,307.1134507,6.59605943,-99999.0,'11133222,11111222,99999999' 
TABS,ioos:station:wmo:42050:1,2010-05-01T12:30:00Z,28.8425,-94.2433,2.0,298.0660367,4.952352976,-99999.0,'11133222,11111222,99999999' 
TABS,ioos:station:wmo:42050:1,2010-05-01T13:00:00Z,28.8425,-94.2433,2.0,297.3709196,5.089793709,-99999.0,'11133222,11111222,99999999' 
TABS,ioos:station:wmo:42050:1,2010-05-01T13:30:00Z,28.8425,-94.2433,2.0,290.6473635,3.686800781,-99999.0,'11133222,11111222,99999999' 
TABS,ioos:station:wmo:42050:1,2010-05-01T14:00:00Z,28.8425,-94.2433,2.0,266.7197482,3.495725962,-99999.0,'11133222,11111222,99999999' 
TABS,ioos:station:wmo:42050:1,2010-05-01T14:30:00Z,28.8425,-94.2433,2.0,218.0925377,5.997366089,-99999.0,'11133222,11111222,99999999' 
TABS,ioos:station:wmo:42050:1,2010-05-01T15:00:00Z,28.8425,-94.2433,2.0,221.1732114,8.688498144,-99999.0,'11133222,11111222,99999999' 
TABS,ioos:station:wmo:42050:1,2010-05-01T15:30:00Z,28.8425,-94.2433,2.0,214.4650442,10.24902434,-99999.0,'11111222,11111222,99999999' 
TABS,ioos:station:wmo:42050:1,2010-05-01T16:00:00Z,28.8425,-94.2433,2.0,224.9458856,7.530690539,-99999.0,'11133222,11111222,99999999' 
TABS,ioos:station:wmo:42050:1,2010-05-01T16:30:00Z,28.8425,-94.2433,2.0,253.7695561,3.041200421,-99999.0,'11133222,11111222,99999999' 
TABS,ioos:station:wmo:42050:1,2010-05-01T17:00:00Z,28.8425,-94.2433,2.0,263.1568217,5.539458457,-99999.0,'11133222,11111222,99999999' 
TABS,ioos:station:wmo:42050:1,2010-05-01T17:30:00Z,28.8425,-94.2433,2.0,265.1584554,6.754095054,-99999.0,'11133222,11111222,99999999' 
TABS,ioos:station:wmo:42050:1,2010-05-01T18:00:00Z,28.8425,-94.2433,2.0,286.1628822,7.975211596,-99999.0,'11133222,11111222,99999999' 
TABS,ioos:station:wmo:42050:1,2010-05-01T18:30:00Z,28.8425,-94.2433,2.0,299.4244106,11.29726073,-99999.0,'11111222,11111222,99999999' 
TABS,ioos:station:wmo:42050:1,2010-05-01T19:00:00Z,28.8425,-94.2433,2.0,298.799214,12.62101422,-99999.0,'11111222,11111222,99999999' 
TABS,ioos:station:wmo:42050:1,2010-05-01T19:30:00Z,28.8425,-94.2433,2.0,323.6644309,12.01652196,-99999.0,'11111222,11111222,99999999' 
TABS,ioos:station:wmo:42050:1,2010-05-01T20:00:00Z,28.8425,-94.2433,2.0,333.6222322,10.96126361,-99999.0,'11111222,11111222,99999999' 
TABS,ioos:station:wmo:42050:1,2010-05-01T20:30:00Z,28.8425,-94.2433,2.0,331.6199537,10.72956663,-99999.0,'11111222,11111222,99999999' 
TABS,ioos:station:wmo:42050:1,2010-05-01T21:00:00Z,28.8425,-94.2433,2.0,336.5632418,12.62128361,-99999.0,'11111222,11111222,99999999' 
TABS,ioos:station:wmo:42050:1,2010-05-01T21:30:00Z,28.8425,-94.2433,2.0,329.7938434,11.54800849,-99999.0,'11111222,11111222,99999999' 
TABS,ioos:station:wmo:42050:1,2010-05-01T22:00:00Z,28.8425,-94.2433,2.0,314.4570938,12.67899444,-99999.0,'11111222,11111222,99999999' 
TABS,ioos:station:wmo:42050:1,2010-05-01T22:30:00Z,28.8425,-94.2433,2.0,319.3734323,12.14810685,-99999.0,'11111222,11111222,99999999' 
TABS,ioos:station:wmo:42050:1,2010-05-01T23:00:00Z,28.8425,-94.2433,2.0,308.0792142,11.09046888,-99999.0,'11111222,11111222,99999999' 
TABS,ioos:station:wmo:42050:1,2010-05-01T23:30:00Z,28.8425,-94.2433,2.0,313.7556141,13.34625416,-99999.0,'11111222,11111222,99999999' 
TABS,ioos:station:wmo:42050:1,2010-05-02T00:00:00Z,28.8425,-94.2433,2.0,293.2224534,12.80763054,-99999.0,'11111222,11111222,99999999' 
TABS,ioos:station:wmo:42050:1,2010-05-02T00:30:00Z,28.8425,-94.2433,2.0,304.9887073,12.85292963,-99999.0,'11111222,11111222,99999999' 
TABS,ioos:station:wmo:42050:1,2010-05-02T01:00:00Z,28.8425,-94.2433,2.0,298.3568492,10.44306947,-99999.0,'11111222,11111222,99999999' 
TABS,ioos:station:wmo:42050:1,2010-05-02T01:30:00Z,28.8425,-94.2433,2.0,292.2633348,10.37327817,-99999.0,'11111222,11111222,99999999' 
TABS,ioos:station:wmo:42050:1,2010-05-02T02:00:00Z,28.8425,-94.2433,2.0,282.3615052,11.11773358,-99999.0,'11111222,11111222,99999999' 
TABS,ioos:station:wmo:42050:1,2010-05-02T02:30:00Z,28.8425,-94.2433,2.0,274.9811059,13.59132076,-99999.0,'11111222,11111222,99999999' 
TABS,ioos:station:wmo:42050:1,2010-05-02T03:00:00Z,28.8425,-94.2433,2.0,273.1312844,14.28131647,-99999.0,'11111222,11111222,99999999' 
TABS,ioos:station:wmo:42050:1,2010-05-02T03:30:00Z,28.8425,-94.2433,2.0,276.8355712,14.95629968,-99999.0,'11111222,11111222,99999999' 
TABS,ioos:station:wmo:42050:1,2010-05-02T04:00:00Z,28.8425,-94.2433,2.0,286.1954548,15.13040978,-99999.0,'11111222,11111222,99999999' 
TABS,ioos:station:wmo:42050:1,2010-05-02T04:30:00Z,28.8425,-94.2433,2.0,297.0959101,13.52431884,-99999.0,'11111222,11111222,99999999' 
TABS,ioos:station:wmo:42050:1,2010-05-02T05:00:00Z,28.8425,-94.2433,2.0,306.0949068,18.17966446,-99999.0,'11111222,11111222,99999999' 
TABS,ioos:station:wmo:42050:1,2010-05-02T05:30:00Z,28.8425,-94.2433,2.0,306.2117695,16.70710328,-99999.0,'11111222,11111222,99999999' 
TABS,ioos:station:wmo:42050:1,2010-05-02T06:00:00Z,28.8425,-94.2433,2.0,314.344009,16.66760031,-99999.0,'11111222,11111222,99999999' 
TABS,ioos:station:wmo:42050:1,2010-05-02T06:30:00Z,28.8425,-94.2433,2.0,326.8120685,17.09928946,-99999.0,'11111222,11111222,99999999' 
TABS,ioos:station:wmo:42050:1,2010-05-02T07:00:00Z,28.8425,-94.2433,2.0,328.0641085,16.67377882,-99999.0,'11111222,11111222,99999999' 
TABS,ioos:station:wmo:42050:1,2010-05-02T07:30:00Z,28.8425,-94.2433,2.0,323.984294,18.5200567,-99999.0,'11111222,11111222,99999999' 
TABS,ioos:station:wmo:42050:1,2010-05-02T08:00:00Z,28.8425,-94.2433,2.0,329.5076064,16.06138537,-99999.0,'11111222,11111222,99999999' 
TABS,ioos:station:wmo:42050:1,2010-05-02T08:30:00Z,28.8425,-94.2433,2.0,334.3720678,16.13762374,-99999.0,'11111222,11111222,99999999' 
TABS,ioos:station:wmo:42050:1,2010-05-02T09:00:00Z,28.8425,-94.2433,2.0,334.8533142,14.63731191,-99999.0,'11111222,11111222,99999999' 
TABS,ioos:station:wmo:42050:1,2010-05-02T09:30:00Z,28.8425,-94.2433,2.0,338.2686991,15.23259991,-99999.0,'11111222,11111222,99999999' 
TABS,ioos:station:wmo:42050:1,2010-05-02T10:00:00Z,28.8425,-94.2433,2.0,334.3368944,14.77776708,-99999.0,'11111222,11111222,99999999' 
TABS,ioos:station:wmo:42050:1,2010-05-02T10:30:00Z,28.8425,-94.2433,2.0,332.9405641,11.9142142,-99999.0,'11111222,11111222,99999999' 
TABS,ioos:station:wmo:42050:1,2010-05-02T11:00:00Z,28.8425,-94.2433,2.0,329.8668399,10.0594483,-99999.0,'11111222,11111222,99999999' 
TABS,ioos:station:wmo:42050:1,2010-05-02T11:30:00Z,28.8425,-94.2433,2.0,327.7100589,8.741910546,-99999.0,'11133222,11111222,99999999' 
TABS,ioos:station:wmo:42050:1,2010-05-02T12:00:00Z,28.8425,-94.2433,2.0,320.3307994,6.469721787,-99999.0,'11133222,11111222,99999999' 
TABS,ioos:station:wmo:42050:1,2010-05-02T12:30:00Z,28.8425,-94.2433,2.0,316.3974934,4.35,-99999.0,'11133222,11111222,99999999' 
TABS,ioos:station:wmo:42050:1,2010-05-02T13:00:00Z,28.8425,-94.2433,2.0,276.5573521,2.627184805,-99999.0,'11133222,11111222,99999999' 
TABS,ioos:station:wmo:42050:1,2010-05-02T13:30:00Z,28.8425,-94.2433,2.0,236.177573,2.407405242,-99999.0,'11133222,11111222,99999999' 
TABS,ioos:station:wmo:42050:1,2010-05-02T14:00:00Z,28.8425,-94.2433,2.0,234.2852556,3.768766376,-99999.0,'11133222,11111222,99999999' 
TABS,ioos:station:wmo:42050:1,2010-05-02T14:30:00Z,28.8425,-94.2433,2.0,210.1461215,6.371820776,-99999.0,'11133222,11111222,99999999' 
TABS,ioos:station:wmo:42050:1,2010-05-02T15:00:00Z,28.8425,-94.2433,2.0,216.4110418,8.996288123,-99999.0,'11133222,11111222,99999999' 
TABS,ioos:station:wmo:42050:1,2010-05-02T15:30:00Z,28.8425,-94.2433,2.0,205.7778,8.140055282,-99999.0,'11133222,11111222,99999999' 
TABS,ioos:station:wmo:42050:1,2010-05-02T16:00:00Z,28.8425,-94.2433,2.0,184.3182667,8.764884483,-99999.0,'11133222,11111222,99999999' 
TABS,ioos:station:wmo:42050:1,2010-05-02T16:30:00Z,28.8425,-94.2433,2.0,175.1656576,10.79841192,-99999.0,'11111222,11111222,99999999' 
TABS,ioos:station:wmo:42050:1,2010-05-02T17:00:00Z,28.8425,-94.2433,2.0,197.9460133,12.2352973,-99999.0,'11111222,11111222,99999999' 
TABS,ioos:station:wmo:42050:1,2010-05-02T17:30:00Z,28.8425,-94.2433,2.0,206.9252655,11.37286683,-99999.0,'11111222,11111222,99999999' 
TABS,ioos:station:wmo:42050:1,2010-05-02T18:00:00Z,28.8425,-94.2433,2.0,221.277262,8.822091589,-99999.0,'11133222,11111222,99999999' 
TABS,ioos:station:wmo:42050:1,2010-05-02T18:30:00Z,28.8425,-94.2433,2.0,238.1028236,8.951698163,-99999.0,'11133222,11111222,99999999' 
TABS,ioos:station:wmo:42050:1,2010-05-02T19:00:00Z,28.8425,-94.2433,2.0,236.7223389,6.160105519,-99999.0,'11133222,11111222,99999999' 
TABS,ioos:station:wmo:42050:1,2010-05-02T19:30:00Z,28.8425,-94.2433,2.0,249.5106466,8.999299973,-99999.0,'11133222,11111222,99999999' 
TABS,ioos:station:wmo:42050:1,2010-05-02T20:00:00Z,28.8425,-94.2433,2.0,242.2505879,11.25429696,-99999.0,'11111222,11111222,99999999' 
TABS,ioos:station:wmo:42050:1,2010-05-02T20:30:00Z,28.8425,-94.2433,2.0,240.0055566,12.26218985,-99999.0,'11111222,11111222,99999999' 
TABS,ioos:station:wmo:42050:1,2010-05-02T21:00:00Z,28.8425,-94.2433,2.0,243.8593256,11.4623994,-99999.0,'11111222,11111222,99999999' 
TABS,ioos:station:wmo:42050:1,2010-05-02T21:30:00Z,28.8425,-94.2433,2.0,242.0005062,16.08236612,-99999.0,'11111222,11111222,99999999' 
TABS,ioos:station:wmo:42050:1,2010-05-02T22:00:00Z,28.8425,-94.2433,2.0,249.4887678,17.8089865,-99999.0,'11111222,11111222,99999999' 
TABS,ioos:station:wmo:42050:1,2010-05-02T22:30:00Z,28.8425,-94.2433,2.0,235.734235,19.05768611,-99999.0,'11111222,11111222,99999999' 
TABS,ioos:station:wmo:42050:1,2010-05-02T23:00:00Z,28.8425,-94.2433,2.0,227.5686406,27.92342565,-99999.0,'11111222,11111222,99999999' 
TABS,ioos:station:wmo:42050:1,2010-05-02T23:30:00Z,28.8425,-94.2433,2.0,240.8673756,36.54272157,-99999.0,'11111222,11111222,99999999' 
TABS,ioos:station:wmo:42050:1,2010-05-03T00:00:00Z,28.8425,-94.2433,2.0,248.2771873,40.42034265,-99999.0,'11111222,11111222,99999999' 
TABS,ioos:station:wmo:42050:1,2010-05-03T00:30:00Z,28.8425,-94.2433,2.0,251.5785252,39.24070463,-99999.0,'11111222,11111222,99999999' 
TABS,ioos:station:wmo:42050:1,2010-05-03T01:00:00Z,28.8425,-94.2433,2.0,252.4909572,39.12248714,-99999.0,'11111222,11111222,99999999' 
TABS,ioos:station:wmo:42050:1,2010-05-03T01:30:00Z,28.8425,-94.2433,2.0,251.0946698,39.3210834,-99999.0,'11111222,11111222,99999999' 
TABS,ioos:station:wmo:42050:1,2010-05-03T02:00:00Z,28.8425,-94.2433,2.0,251.4108304,41.22043789,-99999.0,'11111222,11111222,99999999' 
TABS,ioos:station:wmo:42050:1,2010-05-03T02:30:00Z,28.8425,-94.2433,2.0,251.7779431,39.07969805,-99999.0,'11111222,11111222,99999999' 
TABS,ioos:station:wmo:42050:1,2010-05-03T03:00:00Z,28.8425,-94.2433,2.0,251.0587135,39.03351509,-99999.0,'11111222,11111222,99999999' 
TABS,ioos:station:wmo:42050:1,2010-05-03T03:30:00Z,28.8425,-94.2433,2.0,257.8797701,38.29353993,-99999.0,'11111222,11111222,99999999' 
TABS,ioos:station:wmo:42050:1,2010-05-03T04:00:00Z,28.8425,-94.2433,2.0,254.7599814,32.4511479,-99999.0,'11111222,11111222,99999999' 
TABS,ioos:station:wmo:42050:1,2010-05-03T04:30:00Z,28.8425,-94.2433,2.0,260.1667783,30.50815793,-99999.0,'11111222,11111222,99999999' 
TABS,ioos:station:wmo:42050:1,2010-05-03T05:00:00Z,28.8425,-94.2433,2.0,261.5810113,30.05383337,-99999.0,'11111222,11111222,99999999' 
TABS,ioos:station:wmo:42050:1,2010-05-03T05:30:00Z,28.8425,-94.2433,2.0,267.3989118,27.54837382,-99999.0,'11111222,11111222,99999999' 
TABS,ioos:station:wmo:42050:1,2010-05-03T06:00:00Z,28.8425,-94.2433,2.0,272.4717449,24.58286395,-99999.0,'11111222,11111222,99999999' 
TABS,ioos:station:wmo:42050:1,2010-05-03T06:30:00Z,28.8425,-94.2433,2.0,277.3823223,22.96030052,-99999.0,'11111222,11111222,99999999' 
TABS,ioos:station:wmo:42050:1,2010-05-03T07:00:00Z,28.8425,-94.2433,2.0,284.562682,21.3973947,-99999.0,'11111222,11111222,99999999' 
TABS,ioos:station:wmo:42050:1,2010-05-03T07:30:00Z,28.8425,-94.2433,2.0,272.0838415,24.20600132,-99999.0,'11111222,11111222,99999999' 
TABS,ioos:station:wmo:42050:1,2010-05-03T08:00:00Z,28.8425,-94.2433,2.0,286.1193056,22.22366756,-99999.0,'11111222,11111222,99999999' 
TABS,ioos:station:wmo:42050:1,2010-05-03T08:30:00Z,28.8425,-94.2433,2.0,295.1766966,22.14357695,-99999.0,'11111222,11111222,99999999' 
TABS,ioos:station:wmo:42050:1,2010-05-03T09:00:00Z,28.8425,-94.2433,2.0,302.0224295,21.82005729,-99999.0,'11111222,11111222,99999999' 
TABS,ioos:station:wmo:42050:1,2010-05-03T09:30:00Z,28.8425,-94.2433,2.0,314.2890469,22.78473612,-99999.0,'11111222,11111222,99999999' 
TABS,ioos:station:wmo:42050:1,2010-05-03T10:00:00Z,28.8425,-94.2433,2.0,321.1782671,20.9601646,-99999.0,'11111222,11111222,99999999' 
TABS,ioos:station:wmo:42050:1,2010-05-03T10:30:00Z,28.8425,-94.2433,2.0,323.82917,17.87532937,-99999.0,'11111222,11111222,99999999' 
TABS,ioos:station:wmo:42050:1,2010-05-03T11:00:00Z,28.8425,-94.2433,2.0,331.4975444,18.25227931,-99999.0,'11111222,11111222,99999999' 
TABS,ioos:station:wmo:42050:1,2010-05-03T11:30:00Z,28.8425,-94.2433,2.0,332.2580793,16.32674187,-99999.0,'11111222,11111222,99999999' 
TABS,ioos:station:wmo:42050:1,2010-05-03T12:00:00Z,28.8425,-94.2433,2.0,318.6790137,12.34323296,-99999.0,'11111222,11111222,99999999' 
TABS,ioos:station:wmo:42050:1,2010-05-03T12:30:00Z,28.8425,-94.2433,2.0,336.4669976,9.216555756,-99999.0,'11133222,11111222,99999999' 
TABS,ioos:station:wmo:42050:1,2010-05-03T13:00:00Z,28.8425,-94.2433,2.0,318.1953214,8.880923375,-99999.0,'11133222,11111222,99999999' 
TABS,ioos:station:wmo:42050:1,2010-05-03T13:30:00Z,28.8425,-94.2433,2.0,303.969626,8.53693739,-99999.0,'11133222,11111222,99999999' 
TABS,ioos:station:wmo:42050:1,2010-05-03T14:00:00Z,28.8425,-94.2433,2.0,299.9819902,6.003332408,-99999.0,'11133222,11111222,99999999' 
TABS,ioos:station:wmo:42050:1,2010-05-03T14:30:00Z,28.8425,-94.2433,2.0,303.4628214,8.378812565,-99999.0,'11133222,11111222,99999999' 
TABS,ioos:station:wmo:42050:1,2010-05-03T15:00:00Z,28.8425,-94.2433,2.0,282.07253,7.076496308,-99999.0,'11133222,11111222,99999999' 
TABS,ioos:station:wmo:42050:1,2010-05-03T15:30:00Z,28.8425,-94.2433,2.0,263.555847,8.554039981,-99999.0,'11133222,11111222,99999999' 
TABS,ioos:station:wmo:42050:1,2010-05-03T16:00:00Z,28.8425,-94.2433,2.0,279.462721,7.725108413,-99999.0,'11133222,11111222,99999999' 
TABS,ioos:station:wmo:42050:1,2010-05-03T16:30:00Z,28.8425,-94.2433,2.0,271.0248556,7.271162218,-99999.0,'11133222,11111222,99999999' 
TABS,ioos:station:wmo:42050:1,2010-05-03T17:00:00Z,28.8425,-94.2433,2.0,281.3274352,6.567929659,-99999.0,'11133222,11111222,99999999' 
TABS,ioos:station:wmo:42050:1,2010-05-03T17:30:00Z,28.8425,-94.2433,2.0,264.9265798,11.5351853,-99999.0,'11111222,11111222,99999999' 
TABS,ioos:station:wmo:42050:1,2010-05-03T18:00:00Z,28.8425,-94.2433,2.0,266.0913946,10.12354187,-99999.0,'11111222,11111222,99999999' 
TABS,ioos:station:wmo:42050:1,2010-05-03T18:30:00Z,28.8425,-94.2433,2.0,230.2203233,5.595212239,-99999.0,'11133222,11111222,99999999' 
TABS,ioos:station:wmo:42050:1,2010-05-03T19:00:00Z,28.8425,-94.2433,2.0,268.7852647,8.021801543,-99999.0,'11133222,11111222,99999999' 
TABS,ioos:station:wmo:42050:1,2010-05-03T19:30:00Z,28.8425,-94.2433,2.0,268.0544369,13.25763931,-99999.0,'11111222,11111222,99999999' 
TABS,ioos:station:wmo:42050:1,2010-05-03T20:00:00Z,28.8425,-94.2433,2.0,278.7101409,10.76413025,-99999.0,'11111222,11111222,99999999' 
TABS,ioos:station:wmo:42050:1,2010-05-03T20:30:00Z,28.8425,-94.2433,2.0,273.1198486,11.57715423,-99999.0,'11111222,11111222,99999999' 
TABS,ioos:station:wmo:42050:1,2010-05-03T21:00:00Z,28.8425,-94.2433,2.0,280.5813512,9.094641279,-99999.0,'11133222,11111222,99999999' 
TABS,ioos:station:wmo:42050:1,2010-05-03T21:30:00Z,28.8425,-94.2433,2.0,276.6276978,10.13774137,-99999.0,'11111222,11111222,99999999' 
TABS,ioos:station:wmo:42050:1,2010-05-03T22:00:00Z,28.8425,-94.2433,2.0,273.1724849,12.28882826,-99999.0,'11111222,11111222,99999999' 
TABS,ioos:station:wmo:42050:1,2010-05-03T22:30:00Z,28.8425,-94.2433,2.0,267.4457122,11.22114522,-99999.0,'11111222,11111222,99999999' 
TABS,ioos:station:wmo:42050:1,2010-05-03T23:00:00Z,28.8425,-94.2433,2.0,251.2494529,12.07059651,-99999.0,'11111222,11111222,99999999' 
TABS,ioos:station:wmo:42050:1,2010-05-03T23:30:00Z,28.8425,-94.2433,2.0,248.2708271,11.72295611,-99999.0,'11111222,11111222,99999999' 
TABS,ioos:station:wmo:42050:1,2010-05-04T00:00:00Z,28.8425,-94.2433,2.0,247.8533982,11.72501599,-99999.0,'11111222,11111222,99999999' 
TABS,ioos:station:wmo:42050:1,2010-05-04T00:30:00Z,28.8425,-94.2433,2.0,242.4750268,11.74994894,-99999.0,'11111222,11111222,99999999' 
TABS,ioos:station:wmo:42050:1,2010-05-04T01:00:00Z,28.8425,-94.2433,2.0,224.6477892,12.66452131,-99999.0,'11111222,11111222,99999999' 
TABS,ioos:station:wmo:42050:1,2010-05-04T01:30:00Z,28.8425,-94.2433,2.0,212.8900785,13.31410155,-99999.0,'11111222,11111222,99999999' 
TABS,ioos:station:wmo:42050:1,2010-05-04T02:00:00Z,28.8425,-94.2433,2.0,216.869601,15.0,-99999.0,'11111222,11111222,99999999' 
TABS,ioos:station:wmo:42050:1,2010-05-04T02:30:00Z,28.8425,-94.2433,2.0,210.2388476,16.67957134,-99999.0,'11111222,11111222,99999999' 
TABS,ioos:station:wmo:42050:1,2010-05-04T03:00:00Z,28.8425,-94.2433,2.0,215.2187477,19.02189528,-99999.0,'11111222,11111222,99999999' 
TABS,ioos:station:wmo:42050:1,2010-05-04T03:30:00Z,28.8425,-94.2433,2.0,214.4850036,17.78540132,-99999.0,'11111222,11111222,99999999' 
TABS,ioos:station:wmo:42050:1,2010-05-04T04:00:00Z,28.8425,-94.2433,2.0,211.2645886,15.33733028,-99999.0,'11111222,11111222,99999999' 
TABS,ioos:station:wmo:42050:1,2010-05-04T04:30:00Z,28.8425,-94.2433,2.0,216.1161854,17.49151223,-99999.0,'11111222,11111222,99999999' 
TABS,ioos:station:wmo:42050:1,2010-05-04T05:00:00Z,28.8425,-94.2433,2.0,207.2969118,20.64953753,-99999.0,'11111222,11111222,99999999' 
TABS,ioos:station:wmo:42050:1,2010-05-04T05:30:00Z,28.8425,-94.2433,2.0,214.9143992,18.81695512,-99999.0,'11111222,11111222,99999999' 
TABS,ioos:station:wmo:42050:1,2010-05-04T06:00:00Z,28.8425,-94.2433,2.0,226.3937722,19.18241382,-99999.0,'11111222,11111222,99999999' 
TABS,ioos:station:wmo:42050:1,2010-05-04T06:30:00Z,28.8425,-94.2433,2.0,232.7454538,17.89040245,-99999.0,'11111222,11111222,99999999' 
TABS,ioos:station:wmo:42050:1,2010-05-04T07:00:00Z,28.8425,-94.2433,2.0,225.8156983,21.34971897,-99999.0,'11111222,11111222,99999999' 
TABS,ioos:station:wmo:42050:1,2010-05-04T07:30:00Z,28.8425,-94.2433,2.0,231.2685186,23.8305728,-99999.0,'11111222,11111222,99999999' 
TABS,ioos:station:wmo:42050:1,2010-05-04T08:00:00Z,28.8425,-94.2433,2.0,242.0264994,27.48062954,-99999.0,'11111222,11111222,99999999' 
TABS,ioos:station:wmo:42050:1,2010-05-04T08:30:00Z,28.8425,-94.2433,2.0,240.2712242,30.22850641,-99999.0,'11111222,11111222,99999999' 
TABS,ioos:station:wmo:42050:1,2010-05-04T09:00:00Z,28.8425,-94.2433,2.0,243.494735,34.08216689,-99999.0,'11111222,11111222,99999999' 
TABS,ioos:station:wmo:42050:1,2010-05-04T09:30:00Z,28.8425,-94.2433,2.0,249.9531205,34.74503849,-99999.0,'11111222,11111222,99999999' 
TABS,ioos:station:wmo:42050:1,2010-05-04T10:00:00Z,28.8425,-94.2433,2.0,247.3055374,32.0623346,-99999.0,'11111222,11111222,99999999' 
TABS,ioos:station:wmo:42050:1,2010-05-04T10:30:00Z,28.8425,-94.2433,2.0,249.3363949,32.5328142,-99999.0,'11111222,11111222,99999999' 
TABS,ioos:station:wmo:42050:1,2010-05-04T11:00:00Z,28.8425,-94.2433,2.0,258.6932845,31.1138249,-99999.0,'11111222,11111222,99999999' 
TABS,ioos:station:wmo:42050:1,2010-05-04T11:30:00Z,28.8425,-94.2433,2.0,262.4175056,30.16372656,-99999.0,'11111222,11111222,99999999' 
TABS,ioos:station:wmo:42050:1,2010-05-04T12:00:00Z,28.8425,-94.2433,2.0,266.6203314,31.5548665,-99999.0,'11111222,11111222,99999999' 
TABS,ioos:station:wmo:42050:1,2010-05-04T12:30:00Z,28.8425,-94.2433,2.0,269.7701683,29.97024024,-99999.0,'11111222,11111222,99999999' 
TABS,ioos:station:wmo:42050:1,2010-05-04T13:00:00Z,28.8425,-94.2433,2.0,278.3072058,25.67941199,-99999.0,'11111222,11111222,99999999' 
TABS,ioos:station:wmo:42050:1,2010-05-04T13:30:00Z,28.8425,-94.2433,2.0,279.1285628,25.08771213,-99999.0,'11111222,11111222,99999999' 
TABS,ioos:station:wmo:42050:1,2010-05-04T14:00:00Z,28.8425,-94.2433,2.0,285.0072037,21.04783599,-99999.0,'11111222,11111222,99999999' 
TABS,ioos:station:wmo:42050:1,2010-05-04T18:30:00Z,28.8425,-94.2433,2.0,267.2068832,2.46292509,-99999.0,'11133222,11111222,99999999' 
TABS,ioos:station:wmo:42050:1,2010-05-04T19:00:00Z,28.8425,-94.2433,2.0,244.7464747,1.758010239,-99999.0,'11133222,11111222,99999999' 
TABS,ioos:station:wmo:42050:1,2010-05-04T19:30:00Z,28.8425,-94.2433,2.0,260.3850323,1.856071119,-99999.0,'11133222,11111222,99999999' 
TABS,ioos:station:wmo:42050:1,2010-05-04T20:00:00Z,28.8425,-94.2433,2.0,225.5726217,1.414284271,-99999.0,'11133222,11111222,99999999' 